This is the latest recevied weather packets stored in our database for station/object YM7KGL-1. If no packets are shown the sender has not sent any weather packets the latest 10 day(s).
| Time | Temp. | Humidity | Pressure | Rain* | Wind** | Luminosity | Snow |
|---|---|---|---|---|---|---|---|
| 1777919981 | 15° C | 54% | 1009.3 hPa | - | - | - | - |
| 1777919081 | 15° C | 54% | 1009.1 hPa | - | - | - | - |
| 1777918181 | 15.56° C | 54% | 1008.8 hPa | - | - | - | - |
| 1777917318 | 15.56° C | 54% | 1008.7 hPa | - | - | - | - |
| 1777916561 | 15.56° C | 54% | 1008.1 hPa | - | - | - | - |
| 1777916418 | 15.56° C | 54% | 1008.5 hPa | - | - | - | - |
| 1777915517 | 15.56° C | 54% | 1008.4 hPa | - | - | - | - |
| 1777914617 | 15.56° C | 54% | 1008.1 hPa | - | - | - | - |
| 1777913851 | 15.56° C | 54% | 1007.9 hPa | - | - | - | - |
| 1777912951 | 15.56° C | 54% | 1007.7 hPa | - | - | - | - |
| 1777912049 | 16.11° C | 54% | 1007.5 hPa | - | - | - | - |
| 1777911833 | 16.11° C | 53% | 1007.3 hPa | - | - | - | - |
| 1777911149 | 16.11° C | 53% | 1007.3 hPa | - | - | - | - |
| 1777911044 | 16.11° C | 53% | 1007.2 hPa | - | - | - | - |
| 1777910143 | 16.67° C | 53% | 1007 hPa | - | - | - | - |
| 1777909243 | 16.67° C | 53% | 1006.8 hPa | - | - | - | - |
| 1777908334 | 16.67° C | 53% | 1006.7 hPa | - | - | - | - |
| 1777907434 | 17.22° C | 53% | 1006.7 hPa | - | - | - | - |
| 1777907073 | 17.22° C | 53% | 1006.6 hPa | - | - | - | - |
| 1777906172 | 17.78° C | 52% | 1006 hPa | - | - | - | - |
| 1777905272 | 18.33° C | 52% | 1006.9 hPa | - | - | - | - |
| 1777904371 | 18.33° C | 52% | 1006.5 hPa | - | - | - | - |
| 1777903730 | 19.44° C | 52% | 1005.8 hPa | - | - | - | - |
| 1777903471 | 19.44° C | 52% | 1005.8 hPa | - | - | - | - |
| 1777902836 | 20° C | 51% | 1005.8 hPa | - | - | - | - |
* Rain since midnight (hover to see other rain measurements)
** Current wind speed in m/s (hover to see current wind gust speed)